Temperature
20 20 20 20 18 17 19 19 19 19 19 19 19 18 18 17 18 17 17 17 17 17 17 17 17 17 17 16 16 16 16 16 16 16 16 16 16 16 16 16 16 16 16 16 16 16 16 16 16
20 20 20 20 18 18 19 19 19 19 19 19 19 18 17 17 17 17 17 17 17 17 17 17 17 17 16 16 16 16 16 16 16 16 16 16 16 16 16 16 16 16 16 16 16 16 16 16 16
20 20 20 17 18 18 19 19 19 19 20 19 18 18 17 17 17 17 17 17 17 17 17 17 17 16 16 16 16 16 16 16 16 15 15 15 15 15 15 15 15 15 15 16 16 16 16 16 16
20 20 20 17 19 19 19 19 19 20 20 19 18 17 17 17 18 18 17 17 17 17 17 17 16 16 16 16 16 16 16 15 15 15 15 15 15 15 15 15 15 15 15 15 15 16 16 16 16
20 20 18 18 19 19 19 19 20 19 19 18 18 17 17 17 18 18 17 17 17 17 17 16 16 16 16 16 16 16 15 15 15 15 15 15 15 15 15 15 15 15 15 15 15 16 16 16 16
20 18 17 18 19 19 19 19 19 18 18 18 18 17 17 17 18 17 17 17 17 17 17 16 16 16 16 16 16 15 15 15 15 15 15 15 15 15 15 15 15 15 15 15 15 15 16 16 16
19 17 18 18 18 19 19 19 19 18 18 18 18 17 17 17 17 17 17 17 17 17 17 16 16 16 16 16 15 15 15 15 15 15 15 15 15 15 15 15 15 15 15 15 15 15 15 16 16
20 16 18 18 18 19 19 19 19 19 18 18 18 17 17 17 17 17 17 17 17 17 17 16 16 16 16 16 16 15 15 15 15 15 15 15 15 15 15 15 15 15 15 15 15 15 15 15 16
19 17 17 18 18 18 19 19 19 19 19 18 18 18 18 18 17 17 17 17 17 17 17 16 16 16 16 16 16 15 15 15 15 15 15 15 15 15 15 15 15 15 15 15 15 15 15 15 16
19 17 18 18 18 18 18 18 19 19 18 18 18 18 18 18 18 18 17 17 17 17 17 17 16 16 16 16 16 16 15 15 15 15 15 15 15 15 15 15 15 15 15 15 15 15 15 16 16
18 18 18 18 18 19 18 18 19 19 18 18 18 18 18 18 18 18 18 18 17 17 17 17 17 16 16 16 16 16 15 15 15 15 15 15 15 15 15 15 15 15 15 15 15 15 15 16 16
18 18 18 18 19 19 18 19 18 18 19 19 19 18 18 18 18 18 18 18 18 17 17 17 17 16 16 16 16 16 15 15 15 15 15 15 15 15 15 15 15 15 15 15 15 15 15 15 15
18 18 18 18 18 18 19 18 18 18 19 19 18 18 18 18 18 18 18 18 18 17 17 17 17 16 16 16 16 16 15 15 15 15 15 15 15 15 15 15 15 15 15 15 15 15 15 15 15
18 18 18 18 18 18 18 18 18 18 18 18 18 18 18 18 18 18 18 18 18 18 17 17 17 17 16 16 16 16 15 15 15 15 15 15 15 15 15 15 15 15 15 15 15 15 15 15 15
18 18 18 18 18 18 18 18 17 18 18 18 18 18 18 18 18 18 18 18 18 18 18 17 17 17 16 16 16 16 15 15 15 15 15 15 15 15 15 15 15 15 15 15 15 15 15 15 15
18 17 17 18 18 18 18 17 18 18 18 18 18 18 18 18 18 18 18 18 18 18 18 17 17 17 16 16 16 16 16 15 15 15 15 15 15 15 15 15 15 15 15 15 15 15 15 15 15
17 16 17 18 18 18 18 17 18 18 18 18 18 18 18 18 18 18 18 18 18 18 18 17 17 17 16 16 16 16 16 15 15 15 15 15 15 15 15 15 15 15 15 15 15 15 15 15 15
17 17 17 17 18 18 17 17 17 18 18 18 18 18 18 18 19 19 18 18 18 18 18 17 17 17 17 16 16 16 16 15 15 15 15 15 15 15 15 15 15 15 15 15 15 15 15 15 15
17 17 17 17 18 18 17 17 17 18 18 18 18 18 18 19 19 19 18 18 18 18 18 17 17 17 17 16 16 16 16 15 15 15 15 15 15 15 15 15 15 15 15 15 15 15 15 15 15
17 17 17 17 18 18 17 17 17 18 18 18 18 18 19 19 19 19 18 18 18 18 18 17 17 17 17 16 16 16 16 15 15 15 15 15 15 15 15 15 15 15 15 15 15 15 15 15 15
17 17 17 17 17 18 18 17 17 18 18 18 18 19 19 19 19 19 19 18 18 18 18 18 17 17 17 16 16 16 16 16 15 15 15 15 15 15 15 15 15 15 15 15 15 15 15 15 15
17 18 18 18 17 16 17 16 17 17 17 17 18 18 19 19 19 19 19 19 18 18 18 18 17 17 17 17 16 16 16 16 16 15 15 15 15 15 15 15 15 15 15 15 15 15 15 15 15
17 18 17 17 17 16 17 17 16 16 17 17 18 18 19 19 19 19 19 19 19 18 18 18 17 17 17 17 17 16 16 16 16 15 15 15 15 15 15 15 15 15 15 15 15 15 15 15 15
17 17 16 15 16 16 17 17 16 16 17 18 18 18 19 19 19 19 19 19 19 18 18 18 18 17 17 17 17 16 16 16 16 15 15 15 15 15 15 15 15 15 15 15 15 15 15 15 15
17 16 16 16 15 16 16 17 17 17 18 18 18 19 19 20 19 19 19 19 19 18 18 18 18 18 17 17 17 17 16 16 16 16 15 15 15 15 15 15 15 15 15 14 14 14 14 14 14
16 16 16 16 16 16 16 16 17 18 19 19 19 19 19 19 20 20 20 19 19 19 18 18 18 18 18 17 17 17 17 16 16 16 16 15 15 15 15 15 15 15 14 14 14 14 14 14 14
16 15 15 15 16 16 16 16 17 18 18 18 19 19 19 19 20 20 20 20 19 19 19 19 18 18 18 17 17 17 17 16 16 16 16 15 15 15 15 15 15 15 14 14 14 14 14 14 14
16 15 14 15 16 16 17 17 17 18 18 18 17 18 19 19 20 20 20 20 20 19 19 19 18 18 18 18 17 17 17 17 16 16 16 16 15 15 15 15 15 15 14 14 14 14 14 14 14
16 16 15 14 15 15 16 17 18 18 18 18 18 19 19 20 20 20 20 20 20 19 19 19 19 18 18 18 18 17 17 17 16 16 16 16 15 15 15 15 15 15 15 14 14 14 14 14 14
17 16 15 15 15 15 15 16 19 18 18 18 19 19 20 20 20 20 20 20 20 19 19 19 19 18 18 18 18 17 17 17 17 16 16 16 16 15 15 15 15 15 15 14 14 14 14 14 14
Wind_Speed
4 3 3 3 5 5 2 2 1 2 3 3 5 7 7 5 3 5 1 4 5 5 6 9 10 11 11 12 12 11 11 11 11 11 11 10 10 9 9 8 8 7 7 7 7 7 7 7 6
2 1 3 4 5 3 1 1 2 2 5 5 5 6 7 5 4 5 3 4 6 6 7 8 10 11 11 11 11 11 11 11 10 10 10 9 9 9 8 8 8 8 7 6 6 6 6 6 6
1 2 3 4 4 3 2 1 4 4 4 3 4 5 5 4 3 3 4 6 6 6 7 8 9 10 10 10 10 10 10 10 9 9 9 8 7 7 7 7 7 7 6 6 6 6 6 6 6
3 4 4 5 3 0 1 2 5 5 5 5 5 5 4 2 3 5 7 7 7 5 6 7 8 9 9 9 9 9 9 9 8 7 7 7 7 6 6 6 6 6 6 6 6 6 6 6 6
4 4 5 4 2 2 2 2 2 4 3 4 4 5 4 4 6 8 8 7 6 4 5 6 7 8 8 7 8 7 7 7 6 6 6 6 6 6 6 6 5 5 5 5 5 5 5 5 6
4 4 5 2 2 2 2 2 3 5 5 4 4 5 3 2 6 6 6 6 5 4 4 4 6 6 6 6 6 6 6 5 6 6 6 5 5 6 6 6 6 6 6 5 5 4 4 4 5
4 4 4 3 2 2 2 3 4 5 5 4 4 5 3 1 3 5 6 5 4 4 4 4 4 4 5 5 5 5 5 5 6 6 6 6 6 6 6 7 6 6 6 5 5 4 4 4 5
4 4 4 2 2 1 2 3 3 4 4 4 3 6 5 5 5 6 6 5 4 4 3 3 3 4 5 5 5 6 6 7 7 7 7 8 8 8 8 8 8 7 7 7 6 5 5 6 6
3 4 2 2 3 1 1 3 2 3 5 3 3 4 7 9 9 7 5 4 2 2 1 1 2 3 4 4 5 7 7 9 9 9 9 9 9 9 8 9 9 9 8 8 8 8 7 7 7
4 3 2 1 3 3 2 3 2 4 5 4 6 7 10 10 9 8 6 4 3 2 1 1 1 2 3 4 6 7 8 8 9 8 9 9 8 8 8 10 11 10 10 9 9 9 9 9 8
3 3 2 2 2 3 3 3 2 6 4 5 9 12 10 8 7 6 5 4 4 2 1 1 1 1 2 4 5 6 7 7 8 9 8 8 8 8 9 9 10 10 10 9 9 9 8 8 7
4 3 3 3 3 3 3 3 3 2 3 6 10 12 9 9 7 6 5 3 2 2 2 1 2 3 3 4 4 5 5 6 6 7 7 7 6 6 6 6 7 8 7 7 7 6 7 8 8
3 2 4 4 5 4 5 5 4 3 5 7 9 9 8 7 5 4 3 3 3 3 2 2 3 3 3 4 3 4 4 5 6 7 8 7 5 4 5 5 7 7 7 6 5 6 6 6 7
3 5 5 5 5 4 5 4 4 3 6 7 8 8 7 7 6 4 4 4 4 4 4 3 4 4 4 3 3 3 4 5 6 7 7 7 6 5 4 4 5 7 7 6 6 6 5 5 6
4 6 6 4 4 2 5 5 3 4 6 6 7 6 6 5 5 6 6 6 6 5 4 4 4 4 4 4 4 4 5 6 6 7 8 8 7 6 5 4 4 6 7 8 8 7 7 6 6
4 5 3 2 2 2 4 3 2 5 7 6 6 5 5 4 4 5 6 6 6 6 5 4 5 6 5 5 5 5 6 7 7 7 8 8 8 7 7 5 5 7 8 7 5 5 6 6 6
4 3 1 1 1 2 3 3 3 5 7 6 6 5 5 4 3 4 5 6 7 6 6 5 6 6 6 5 6 6 7 7 7 8 8 8 9 9 8 6 5 7 7 5 4 5 4 5 6
2 3 1 1 0 2 2 3 4 5 6 6 6 5 5 6 5 5 5 6 6 6 6 6 6 6 6 4 4 4 5 5 7 8 8 8 8 9 8 7 7 7 5 5 5 6 6 5 5
5 4 2 1 0 2 3 3 5 6 5 6 5 6 6 6 4 4 5 6 7 6 6 6 7 5 5 3 3 3 3 3 4 6 8 8 9 9 8 6 6 6 5 5 5 4 6 5 3
4 4 2 1 1 2 2 2 3 5 6 7 8 7 7 6 4 5 5 5 6 6 6 6 6 6 4 3 3 3 2 2 2 4 8 9 8 8 7 6 5 5 5 6 5 4 3 4 4
2 4 3 2 2 3 3 1 2 3 4 5 6 7 7 9 9 8 7 6 6 6 7 7 6 5 5 4 4 4 4 4 4 4 4 7 8 9 8 8 6 5 5 5 5 4 4 3 4
2 3 4 4 3 0 1 2 5 4 5 7 8 8 8 8 8 8 8 7 7 7 6 6 6 6 5 5 5 5 3 2 1 1 2 5 8 8 8 8 7 6 5 5 4 4 3 4 3
3 3 4 4 4 1 0 1 5 3 7 10 10 10 10 10 10 10 10 9 7 7 7 6 6 5 5 5 6 6 4 2 1 2 4 5 5 7 8 7 7 6 5 5 5 5 5 3 3
4 5 6 5 3 0 2 3 5 5 10 9 10 10 11 10 10 9 8 7 7 6 6 7 7 5 4 5 5 6 6 5 4 3 3 3 3 4 6 6 6 6 5 5 5 5 6 5 5
4 5 3 3 2 3 2 3 8 8 8 11 12 12 11 11 10 10 10 10 9 8 8 7 8 6 5 6 5 6 6 6 5 3 2 2 2 2 3 4 4 4 5 6 6 6 6 5 5
3 5 5 4 3 3 1 5 7 7 6 7 9 9 9 10 11 11 12 11 11 10 9 9 8 7 6 6 5 5 5 4 3 3 3 2 1 1 2 4 5 5 6 6 6 5 5 5 6
5 3 4 5 1 1 4 5 7 2 1 3 6 8 10 11 12 12 11 11 11 11 10 10 9 7 7 7 6 5 5 5 4 3 3 2 1 2 3 4 5 5 6 6 6 5 5 5 5
4 7 5 4 3 2 4 4 4 4 3 3 6 10 11 11 11 11 11 11 10 9 9 8 8 8 7 7 6 5 5 5 5 4 4 3 2 3 4 4 4 4 5 5 5 4 4 6 5
4 4 4 3 3 3 2 5 5 7 6 7 9 10 11 12 12 12 11 10 9 8 8 8 8 7 7 7 6 6 5 5 5 4 4 4 3 3 3 3 4 4 4 4 5 5 5 6 5
4 5 6 4 3 3 2 6 6 6 6 6 7 8 9 10 10 10 10 9 9 10 9 9 9 8 7 7 7 6 6 6 5 5 4 4 4 3 4 4 4 3 3 3 4 4 4 5 4
Wind_Direction
338 38 75 58 56 55 56 7 103 87 65 64 70 77 82 66 71 121 140 129 124 113 110 114 110 105 101 97 92 90 86 83 80 78 75 73 73 71 69 65 65 65 61 56 57 58 57 54 51
344 69 57 59 79 76 9 349 94 101 137 137 76 71 72 67 69 102 123 131 119 113 111 115 110 106 102 98 93 90 86 82 78 74 71 68 67 66 64 62 62 62 60 54 51 52 51 47 45
20 53 77 70 88 141 147 83 108 92 102 94 76 59 73 90 111 129 148 133 112 106 109 114 112 107 101 95 92 89 86 81 76 72 69 65 62 59 58 59 60 59 58 52 45 46 46 43 41
69 44 55 68 76 78 149 131 121 114 70 53 90 70 61 56 137 139 131 123 111 104 112 119 117 110 102 97 93 88 83 78 72 66 62 59 58 55 51 50 49 48 44 42 40 42 41 40 41
60 72 62 56 44 28 51 95 92 86 65 53 80 84 50 10 100 118 124 123 122 113 117 125 119 111 105 98 90 85 79 70 63 57 52 47 44 43 41 36 32 32 32 34 35 35 36 42 43
53 64 80 89 44 31 36 42 89 84 90 85 80 88 69 58 111 128 126 123 121 116 107 112 116 112 103 93 83 76 69 59 50 45 39 32 31 31 28 23 24 23 24 27 29 28 33 45 50
89 81 106 119 97 39 58 51 90 102 101 104 106 97 106 132 146 131 117 109 101 92 79 64 64 76 78 74 67 58 49 42 37 35 32 28 20 17 16 13 13 14 20 28 33 37 45 57 59
108 95 86 103 118 86 37 54 81 100 100 104 102 129 160 181 140 107 96 86 81 75 70 61 49 49 46 37 38 40 36 36 34 32 29 28 24 20 19 11 12 22 31 35 41 51 61 65 68
86 76 116 164 150 145 82 90 66 72 99 72 71 129 148 136 120 110 101 87 90 98 64 66 45 40 39 26 31 34 36 35 34 35 35 35 31 26 23 20 26 31 38 42 48 59 61 62 63
77 109 171 178 157 138 97 90 104 95 86 79 79 95 117 126 132 137 144 151 157 167 189 113 77 35 29 31 35 34 37 38 37 36 35 36 36 32 31 27 30 34 38 41 45 50 54 58 55
76 122 127 84 112 114 101 73 53 115 122 152 145 140 136 137 144 154 164 166 175 181 186 143 142 64 44 40 41 39 41 40 37 36 38 43 43 37 33 30 27 30 34 36 38 45 49 57 57
90 62 96 94 85 91 105 96 79 94 153 148 146 144 146 150 162 170 172 168 159 152 172 140 108 87 70 68 56 51 48 40 35 34 39 46 42 34 29 30 26 29 30 38 45 49 53 59 61
75 80 68 80 74 84 91 86 92 74 103 116 127 136 152 161 170 172 166 157 144 150 165 138 112 103 95 79 60 59 52 49 46 43 41 49 52 36 34 32 34 33 37 46 50 52 55 56 57
88 89 82 67 66 62 95 76 78 99 116 126 141 154 162 168 169 161 163 159 155 159 160 127 113 113 106 91 74 61 58 58 55 48 45 54 58 52 47 39 36 33 35 48 58 59 63 59 61
90 81 57 44 57 67 96 71 97 148 134 146 159 162 167 172 171 176 177 165 161 156 143 131 125 111 104 93 80 71 59 61 54 44 48 54 57 59 57 47 38 31 43 58 64 61 63 63 60
64 64 58 3 56 83 104 129 159 157 151 165 175 169 172 179 184 177 168 157 155 148 139 139 129 116 105 91 80 72 63 60 51 47 50 52 55 61 61 52 35 36 52 59 63 57 66 61 61
50 86 104 345 52 85 108 157 186 161 159 174 184 182 181 181 184 178 171 162 156 152 138 127 119 116 106 92 81 71 62 53 48 49 47 49 55 58 63 55 40 46 54 52 65 58 71 73 69
151 129 128 244 358 109 131 172 173 170 170 177 184 180 177 187 196 172 166 154 141 135 127 122 113 111 105 89 75 59 49 41 43 43 42 47 55 58 62 57 44 50 58 51 57 71 64 67 71
140 135 159 253 256 121 161 182 194 174 179 182 181 177 181 195 188 155 154 138 128 127 129 133 130 130 121 101 92 78 50 23 26 33 39 47 55 59 62 57 47 48 60 60 64 79 71 53 42
122 132 145 17 52 121 143 201 204 180 192 188 182 187 188 184 163 166 155 147 148 147 146 145 145 144 137 124 119 112 103 59 35 26 37 41 49 55 64 61 54 48 60 57 53 69 82 48 30
136 166 176 158 67 62 103 330 239 214 191 187 184 186 190 189 180 178 171 169 156 160 165 162 157 148 139 128 108 84 58 40 29 21 17 21 43 57 63 64 62 53 59 63 55 62 88 87 42
198 206 164 138 116 32 129 222 257 212 203 202 200 192 192 192 185 182 177 174 174 177 166 157 154 148 145 140 134 129 119 107 54 21 20 26 43 52 59 63 62 58 56 59 54 61 77 101 86
173 101 113 121 125 81 50 189 274 193 214 218 210 203 199 193 187 186 184 181 177 169 162 156 148 147 148 144 141 129 118 119 88 57 51 38 34 43 51 62 65 61 59 59 59 60 65 74 92
126 84 68 60 77 315 232 193 268 218 213 212 208 204 200 195 188 187 180 167 165 160 156 151 149 153 148 143 143 142 139 136 117 86 66 41 32 30 39 58 64 66 66 61 63 65 67 68 78
84 92 58 20 26 254 253 214 251 237 216 206 203 203 197 189 182 178 173 173 172 170 169 161 158 161 157 152 155 158 154 150 146 141 125 97 54 37 23 50 60 65 70 69 69 66 62 62 74
133 130 153 181 212 273 264 242 258 258 232 209 200 193 185 183 183 183 183 181 178 178 175 169 169 169 167 165 165 160 154 148 149 150 144 137 122 93 61 68 68 69 75 76 72 66 60 62 68
133 143 152 127 135 277 272 283 302 314 231 196 184 181 188 188 186 186 184 183 181 181 183 180 174 171 174 172 161 157 157 154 155 151 139 135 132 110 90 84 76 71 75 77 78 70 62 65 62
140 143 112 121 145 267 292 277 259 279 268 218 194 193 195 190 186 185 184 186 185 184 181 177 174 175 174 170 168 166 163 161 155 145 145 145 137 108 103 92 87 80 76 78 78 73 66 71 58
128 118 115 118 148 163 278 278 231 226 227 217 210 203 196 191 189 188 187 184 178 172 172 176 175 171 172 171 167 157 159 155 151 152 157 154 140 129 125 118 109 102 91 88 89 84 80 79 66
158 162 149 152 199 181 204 272 267 235 234 222 213 205 198 192 189 186 181 174 174 177 178 180 178 179 180 171 163 163 158 153 156 162 162 153 146 134 130 122 116 113 109 104 107 105 95 95 89
Height
1508 1508 1509 1510 1513 1522 1526 1522 1519 1520 1521 1522 1521 1522 1524 1528 1531 1538 1536 1534 1535 1536 1536 1537 1537 1537 1537 1538 1538 1538 1538 1538 1538 1538 1538 1538 1537 1537 1537 1537 1536 1536 1536 1536 1536 1536 1536 1536 1536
1508 1509 1510 1510 1519 1532 1529 1521 1520 1520 1521 1522 1523 1524 1526 1530 1531 1533 1534 1535 1536 1537 1538 1538 1539 1539 1539 1539 1539 1539 1539 1539 1539 1539 1539 1538 1538 1538 1537 1537 1537 1537 1536 1536 1537 1537 1537 1537 1537
1509 1509 1511 1513 1522 1529 1527 1521 1520 1521 1522 1523 1525 1527 1529 1532 1533 1534 1535 1536 1537 1538 1539 1540 1540 1541 1541 1541 1541 1541 1541 1541 1540 1540 1540 1539 1539 1538 1538 1538 1537 1537 1537 1537 1537 1537 1537 1537 1537
1510 1511 1512 1518 1524 1523 1521 1520 1520 1521 1523 1524 1526 1529 1532 1534 1535 1536 1537 1538 1539 1540 1541 1541 1542 1542 1542 1542 1542 1543 1542 1542 1542 1541 1541 1540 1540 1539 1539 1538 1538 1538 1537 1537 1537 1537 1537 1537 1537
1510 1511 1517 1525 1524 1522 1520 1520 1521 1522 1524 1526 1527 1531 1534 1536 1536 1537 1538 1540 1541 1542 1543 1543 1544 1544 1544 1544 1544 1544 1544 1544 1544 1543 1542 1542 1541 1541 1540 1540 1539 1539 1538 1538 1538 1538 1538 1538 1538
1511 1512 1525 1531 1526 1522 1522 1522 1522 1524 1526 1528 1529 1532 1536 1538 1538 1539 1541 1542 1543 1543 1544 1545 1546 1546 1546 1546 1546 1546 1546 1546 1545 1545 1544 1543 1543 1542 1542 1541 1541 1540 1540 1539 1539 1539 1539 1539 1539
1513 1517 1526 1527 1527 1525 1523 1523 1524 1525 1527 1529 1531 1534 1537 1539 1540 1541 1542 1544 1545 1546 1546 1547 1547 1548 1548 1548 1548 1548 1548 1547 1547 1546 1545 1545 1544 1543 1543 1542 1542 1541 1541 1540 1540 1540 1539 1539 1539
1513 1518 1525 1528 1528 1527 1524 1524 1526 1527 1529 1531 1532 1534 1537 1539 1541 1543 1544 1545 1547 1548 1548 1549 1549 1550 1550 1550 1550 1550 1549 1549 1548 1547 1547 1546 1545 1545 1544 1544 1543 1542 1542 1541 1541 1541 1540 1540 1540
1514 1523 1529 1527 1527 1526 1524 1525 1527 1528 1529 1531 1532 1534 1537 1539 1542 1544 1545 1547 1548 1549 1550 1551 1551 1552 1552 1552 1552 1551 1551 1550 1550 1549 1548 1547 1547 1546 1545 1545 1544 1543 1543 1543 1542 1542 1542 1542 1541
1515 1525 1525 1523 1523 1524 1525 1526 1527 1529 1530 1532 1534 1536 1539 1541 1543 1545 1546 1548 1549 1551 1552 1552 1553 1553 1554 1553 1553 1553 1553 1552 1551 1550 1549 1549 1548 1547 1547 1546 1545 1545 1544 1544 1544 1543 1543 1543 1543
1517 1522 1522 1522 1523 1524 1525 1527 1528 1529 1532 1533 1534 1537 1540 1542 1544 1546 1548 1550 1551 1552 1553 1554 1555 1555 1555 1555 1555 1555 1554 1554 1553 1552 1551 1550 1549 1549 1548 1547 1546 1546 1546 1545 1545 1545 1545 1545 1545
1519 1521 1521 1523 1524 1525 1526 1527 1529 1530 1532 1533 1536 1538 1541 1543 1546 1547 1549 1551 1552 1553 1555 1555 1556 1557 1557 1557 1557 1556 1556 1555 1554 1553 1552 1552 1551 1550 1549 1548 1548 1547 1547 1547 1546 1546 1546 1546 1547
1520 1522 1523 1524 1525 1526 1527 1529 1531 1533 1534 1535 1538 1540 1543 1545 1547 1549 1551 1553 1554 1555 1556 1557 1558 1558 1558 1558 1558 1558 1557 1556 1556 1555 1554 1553 1552 1551 1550 1549 1549 1549 1548 1548 1548 1548 1548 1548 1549
1522 1523 1525 1526 1527 1528 1529 1531 1532 1535 1536 1537 1539 1542 1544 1546 1548 1550 1552 1553 1555 1556 1557 1558 1559 1559 1560 1560 1559 1559 1558 1558 1557 1556 1555 1554 1554 1552 1552 1551 1550 1550 1550 1550 1550 1550 1550 1550 1551
1523 1526 1528 1528 1529 1530 1531 1535 1536 1536 1538 1539 1541 1543 1545 1547 1549 1551 1553 1554 1556 1557 1558 1559 1560 1561 1561 1561 1561 1560 1560 1559 1558 1558 1557 1556 1555 1554 1553 1552 1552 1552 1551 1551 1551 1552 1552 1552 1553
1525 1530 1535 1532 1530 1531 1535 1541 1537 1537 1538 1541 1542 1544 1546 1548 1550 1552 1554 1555 1557 1558 1559 1560 1561 1562 1562 1562 1562 1562 1561 1561 1560 1559 1558 1557 1556 1556 1555 1554 1553 1553 1553 1553 1553 1553 1554 1554 1555
1532 1539 1539 1535 1531 1532 1535 1540 1537 1538 1539 1541 1543 1544 1546 1548 1550 1552 1554 1556 1558 1559 1560 1561 1562 1563 1563 1564 1563 1563 1563 1562 1561 1561 1560 1559 1558 1557 1556 1556 1555 1555 1555 1555 1555 1555 1555 1556 1556
1538 1539 1539 1538 1534 1534 1536 1538 1537 1538 1540 1541 1542 1544 1546 1548 1550 1552 1555 1556 1558 1560 1561 1563 1563 1564 1564 1565 1565 1564 1564 1563 1563 1562 1561 1560 1560 1559 1558 1557 1557 1557 1556 1556 1556 1557 1557 1557 1558
1531 1536 1539 1537 1533 1535 1537 1538 1538 1538 1540 1541 1542 1544 1545 1548 1550 1552 1555 1557 1559 1560 1562 1563 1564 1565 1566 1566 1566 1566 1565 1565 1564 1564 1563 1562 1561 1561 1560 1559 1559 1558 1558 1558 1558 1558 1559 1559 1560
1532 1537 1539 1537 1533 1535 1539 1539 1537 1537 1538 1539 1541 1543 1545 1547 1550 1552 1555 1557 1559 1560 1562 1564 1565 1566 1567 1567 1567 1567 1567 1566 1566 1565 1565 1564 1563 1562 1562 1561 1561 1560 1560 1560 1560 1560 1560 1561 1561
1533 1536 1537 1538 1536 1536 1539 1543 1539 1537 1537 1539 1540 1542 1544 1546 1548 1551 1554 1556 1558 1560 1562 1564 1565 1567 1567 1568 1568 1568 1568 1568 1567 1567 1566 1566 1565 1565 1564 1563 1563 1562 1562 1562 1562 1562 1562 1562 1563
1536 1531 1532 1535 1542 1547 1543 1553 1541 1537 1537 1537 1538 1540 1542 1544 1547 1550 1552 1555 1558 1560 1562 1564 1566 1567 1568 1569 1569 1569 1569 1569 1569 1568 1568 1568 1567 1567 1566 1565 1565 1564 1564 1564 1564 1564 1564 1564 1565
1532 1529 1532 1536 1542 1548 1546 1551 1545 1537 1537 1534 1534 1536 1539 1542 1545 1548 1551 1554 1557 1560 1562 1564 1566 1567 1568 1569 1570 1570 1570 1570 1570 1570 1570 1569 1569 1568 1568 1567 1567 1566 1566 1566 1566 1566 1566 1566 1566
1529 1532 1537 1541 1546 1555 1548 1551 1547 1538 1531 1529 1530 1533 1536 1539 1543 1546 1550 1553 1556 1559 1561 1563 1565 1567 1568 1569 1570 1571 1571 1571 1571 1571 1571 1571 1570 1570 1570 1569 1568 1568 1568 1567 1567 1567 1567 1567 1568
1531 1541 1554 1556 1560 1558 1547 1547 1542 1525 1522 1523 1525 1528 1532 1536 1540 1543 1547 1550 1554 1557 1560 1562 1564 1566 1568 1569 1570 1571 1572 1572 1572 1572 1572 1572 1572 1571 1571 1571 1570 1570 1569 1569 1569 1569 1569 1569 1569
1534 1539 1554 1562 1563 1558 1548 1547 1532 1519 1518 1519 1521 1524 1528 1532 1536 1540 1544 1548 1551 1555 1558 1561 1563 1565 1567 1568 1570 1571 1572 1573 1573 1573 1573 1573 1573 1573 1572 1572 1572 1571 1571 1571 1571 1571 1571 1571 1570
1535 1540 1540 1551 1553 1556 1551 1541 1526 1517 1516 1517 1519 1522 1525 1529 1533 1537 1541 1545 1549 1553 1556 1559 1562 1564 1566 1568 1570 1571 1572 1573 1573 1574 1574 1574 1574 1574 1574 1573 1573 1573 1573 1573 1573 1572 1572 1572 1572
1530 1535 1544 1551 1558 1560 1550 1543 1536 1522 1518 1517 1517 1519 1522 1526 1530 1534 1538 1543 1547 1551 1555 1558 1560 1563 1565 1567 1569 1570 1572 1573 1573 1574 1574 1575 1575 1575 1575 1574 1574 1574 1574 1574 1574 1574 1573 1573 1573
1533 1537 1541 1548 1550 1558 1557 1545 1520 1518 1515 1514 1514 1516 1519 1523 1526 1531 1535 1540 1545 1549 1553 1556 1559 1561 1563 1566 1568 1569 1571 1572 1573 1574 1574 1575 1575 1575 1575 1575 1575 1575 1575 1575 1575 1575 1574 1574 1574
1527 1531 1538 1547 1551 1551 1553 1543 1512 1512 1511 1511 1512 1514 1517 1521 1524 1529 1533 1538 1542 1546 1550 1553 1556 1559 1562 1564 1566 1568 1570 1571 1572 1573 1574 1575 1575 1576 1576 1576 1576 1576 1576 1576 1576 1575 1575 1575 1575